Medicine Hat, Alberta

2:04 AM MST on February 19, 2018 (GMT -0700)
Medicine Hat

Weather History for CYXH - March, 2013

Change the Weather History Date:

Friday, March 22, 2013

  Actual Average Record
Temperature  
Mean Temperature 6 °F -  
Max Temperature 21 °F 51 °F 62 °F (1999)
Min Temperature -10 °F 28 °F -32 °F (2017)
Degree Days  
Heating Degree Days 60    
Moisture  
Dew Point 12 °F    
Average Humidity 82    
Maximum Humidity 93    
Minimum Humidity 73    
Precipitation  
Precipitation 0.00 in 0.03 in - ()
Sea Level Pressure  
Sea Level Pressure 30.26 in    
Wind  
Wind Speed 12 mph ()    
Max Wind Speed 28 mph    
Max Gust Speed 24 mph    
Visibility 9.6 miles    
Events Snow    
Averages and records for this station are not official NWS values.
T = Trace of Precipitation, MM = Missing Value Source: Averaged Metar Reports

Daily Weather History Graph

Daily Weather History Graph

Search for Another Location

Airport or City:

Trip Planner

Search our weather history database for the weather conditions in past years. The results will help you decide how hot, cold, wet, or windy it might be!

Date:

Astronomy

Mar. 22, 2013 Rise Set
Actual Time 7:20 AM MDT 7:39 PM MDT
Civil Twilight 6:48 AM MDT 8:11 PM MDT
Nautical Twilight 6:10 AM MDT 8:50 PM MDT
Astronomical Twilight 5:30 AM MDT 9:30 PM MDT
Moon 2:47 PM MDT (3/22) 4:47 AM MDT (3/22)
Length of Visible Light 13h 23m
Length of Day
12h 19m
Waxing Gibbous, 78% of the Moon is Illuminated
Mar 22
Waxing Gibbous
Mar 27
Full
Apr 2
Last Quarter
Apr 10
New
Apr 18
First Quarter

Hourly Weather History & Observations

Time (MDT) Temp. Windchill Dew Point Humidity Pressure Visibility Wind Dir Wind Speed Gust Speed Precip Events Conditions
12:00 AM -10 °F - -14 °F 76% 30.85 in - South 25.3 mph - -  
12:00 AM 21.2 °F 12.6 °F 17.6 °F 86% 30.03 in 9.0 mi WNW 6.9 mph - N/A   Mostly Cloudy
1:00 AM 21.2 °F 10.9 °F 15.8 °F 80% 30.05 in 9.0 mi WNW 9.2 mph - N/A   Mostly Cloudy
2:00 AM 19.4 °F 10.4 °F 15.8 °F 86% 30.07 in 9.0 mi NW 6.9 mph - N/A   Scattered Clouds
2:57 AM 19.4 °F 10.4 °F 15.8 °F 86% 30.08 in 9.0 mi WNW 6.9 mph - N/A   Overcast
3:00 AM 19.4 °F 11.5 °F 15.8 °F 86% 30.09 in 9.0 mi NW 5.8 mph - N/A   Overcast
3:54 AM 19.4 °F 8.6 °F 15.8 °F 86% 30.09 in 9.0 mi NNW 9.2 mph - N/A   Overcast
4:00 AM 19.4 °F 8.6 °F 15.8 °F 86% 30.09 in 9.0 mi NNW 9.2 mph - N/A   Overcast
4:17 AM 19.4 °F 9.5 °F 15.8 °F 86% 30.09 in 9.0 mi NNW 8.1 mph - N/A Snow Light Snow
5:00 AM 19.4 °F 11.5 °F 15.8 °F 86% 30.10 in 9.0 mi WNW 5.8 mph - N/A Snow Light Snow
6:00 AM -9 °F - -12 °F 78% 30.85 in - South 27.6 mph - -  
6:00 AM 19.4 °F 10.4 °F 17.6 °F 93% 30.11 in 9.0 mi West 6.9 mph - N/A Snow Light Snow
7:00 AM 19.4 °F 9.5 °F 17.6 °F 93% 30.13 in 15.0 mi WNW 8.1 mph - N/A Snow Light Snow
8:00 AM 19.4 °F 7.9 °F 17.6 °F 93% 30.14 in 6.0 mi WNW 10.4 mph - N/A Snow Light Snow
9:00 AM 19.4 °F 5.5 °F 15.8 °F 86% 30.15 in 10.0 mi NW 15.0 mph - N/A Snow Light Snow
9:12 AM 19.4 °F 5.0 °F 15.8 °F 86% 30.16 in 15.0 mi NNW 16.1 mph 23.0 mph N/A   Overcast
9:27 AM 19.4 °F 4.1 °F 15.8 °F 86% 30.16 in 10.0 mi NNW 18.4 mph - N/A Snow Light Snow Showers
10:00 AM 19.4 °F 5.0 °F 15.8 °F 86% 30.17 in 10.0 mi NNW 16.1 mph - N/A Snow Light Snow Showers
11:00 AM 19.4 °F 4.5 °F 15.8 °F 86% 30.19 in 10.0 mi NNW 17.3 mph - N/A Snow Light Snow Showers
12:00 PM -5 °F - -8 °F 80% 30.84 in - South 21.9 mph - -  
12:00 PM 21.2 °F 7.8 °F 15.8 °F 80% 30.21 in 15.0 mi NW 15.0 mph - N/A Snow Light Snow Showers
1:00 PM 21.2 °F 7.8 °F 14.0 °F 74% 30.22 in 15.0 mi NNW 15.0 mph - N/A Snow Light Snow Showers
1:46 PM 21.2 °F 8.3 °F 15.8 °F 80% 30.23 in 2.5 mi WNW 13.8 mph - N/A Snow Light Snow Showers
2:00 PM 21.2 °F 8.3 °F 17.6 °F 86% 30.24 in 2.5 mi WNW 13.8 mph - N/A Snow Light Snow Showers
2:18 PM 21.2 °F 8.9 °F 15.8 °F 80% 30.23 in 1.5 mi WNW 12.7 mph - N/A Snow Light Snow Showers
2:45 PM 21.2 °F 8.3 °F 15.8 °F 80% 30.24 in 3.0 mi NW 13.8 mph 20.7 mph N/A Snow Light Snow Showers
3:00 PM 21.2 °F 6.4 °F 14.0 °F 74% 30.25 in 6.0 mi NNW 18.4 mph - N/A Snow Snow Showers
4:00 PM 19.4 °F 5.5 °F 14.0 °F 80% 30.26 in 10.0 mi NW 15.0 mph 24.2 mph N/A Snow Light Snow Showers
5:00 PM 21.2 °F 9.5 °F 14.0 °F 74% 30.28 in 1.0 mi NW 11.5 mph 18.4 mph N/A Snow Light Snow Showers
5:55 PM 21.2 °F 7.8 °F 14.0 °F 74% 30.30 in 15.0 mi NW 15.0 mph - N/A   Mostly Cloudy
6:00 PM -1 °F - -4 °F 79% 30.75 in - South 16.1 mph - -  
6:00 PM 21.2 °F 7.3 °F 14.0 °F 74% 30.30 in 15.0 mi WNW 16.1 mph - N/A   Mostly Cloudy
7:00 PM 19.4 °F 6.6 °F 14.0 °F 80% 30.31 in 15.0 mi NW 12.7 mph - N/A   Mostly Cloudy
8:00 PM 17.6 °F 5.7 °F 10.4 °F 73% 30.33 in 15.0 mi NW 10.4 mph - N/A   Mostly Cloudy
9:00 PM 15.8 °F 3.4 °F 8.6 °F 73% 30.35 in 15.0 mi NW 10.4 mph - N/A   Scattered Clouds
10:00 PM 14.0 °F 2.9 °F 8.6 °F 79% 30.37 in 9.0 mi NW 8.1 mph - N/A   Clear
11:00 PM 12.2 °F -0.2 °F 6.8 °F 79% 30.39 in 9.0 mi WNW 9.2 mph - N/A   Clear